Location: Moscow
(55.7500°N, 37.5830°E)
Time: 17:31:02
(UTC+03:00)

Transit 2A - Pass Details

Date: 02 December 2021
Orbit: 591 x 967 km, 66.7° (Epoch: 17 January)

Event Time Altitude Azimuth Distance (km) Brightness Sun altitude
Rises 06:19:04 0° 300° (WNW) 3,574 - -18.0°
Reaches altitude 10° 06:21:51 10° 310° (NW) 2,667 - -17.6°
Exits shadow 06:23:47 19° 322° (NW) 2,111 7.8 -17.4°
Maximum altitude 06:27:30 33° 14° (NNE) 1,560 7.6 -16.9°
Drops below altitude 10° 06:33:15 10° 77° (ENE) 2,708 9.8 -16.1°
Sets 06:36:05 0° 87° (E) 3,638 10.9 -15.7°
